Location: Eschertshofen
(49.3064°N, 11.5756°E)
Time: 06:06:19
(UTC+00:00)

SPOT 1/Viking Rocket - Pass Details

Date: 18 September 2020
Orbit: 777 x 794 km, 98.5° (Epoch: 19 October)

Event Time Altitude Azimuth Distance (km) Brightness Sun altitude
Exits shadow 19:33:46 36° 72° (ENE) 1,234 4.2 -21.7°
Maximum altitude 19:34:04 36° 65° (ENE) 1,228 4.2 -21.7°
Drops below altitude 10° 19:38:45 10° 360° (N) 2,351 6.4 -22.4°
Sets 19:41:13 0° 352° (N) 3,281 7.3 -22.7°
